CW3467 Weather Reports


Display with metric or nautical units.
time (UTC)temp
F
wind
direction
speed
MPH
gust
MPH
rain 1hr
in
rain 24hr
in
rain mn
in
humidity
%
barometer
mb
20260901201004 75 223 1.0 2.0 0.00 0.00 0.00 68 1021.2
20260901200504 75 227 1.0 2.0 0.00 0.00 0.00 69 1021.1
20260901200004 75 227 1.0 2.0 0.00 0.00 0.00 68 1021.3
20260901195525 76 220 0.0 1.0 0.00 0.00 0.00 67 1021.4
20260901195004 76 217 0.0 1.0 0.00 0.00 0.00 66 1021.1
20260901194525 76 216 0.0 1.0 0.00 0.00 0.00 66 1020.8
20260901194025 76 216 0.0 2.0 0.00 0.00 0.00 66 1020.8
20260901193505 76 219 0.0 2.0 0.00 0.00 0.00 66 1020.7
20260901193004 76 215 0.0 1.0 0.00 0.00 0.00 66 1020.5
20260901192504 77 219 0.0 1.0 0.00 0.00 0.00 65 1020.6
20260901192026 78 195 0.0 1.0 0.00 0.00 0.00 64 1020.6
20260901191504 78 204 0.0 2.0 0.00 0.00 0.00 64 1020.4
20260901191004 78 205 1.0 2.0 0.00 0.00 0.00 63 1020.3
20260901190504 78 201 1.0 2.0 0.00 0.00 0.00 62 1020.4
20260901190004 78 196 0.0 2.0 0.00 0.00 0.00 62 1020.3
20260901185504 78 206 0.0 1.0 0.00 0.00 0.00 62 1020.3
20260901185004 78 224 0.0 2.0 0.00 0.00 0.00 62 1020.2
20260901184504 78 233 1.0 4.0 0.00 0.00 0.00 62 1020.2
20260901184025 79 238 1.0 4.0 0.00 0.00 0.00 62 1020.3
20260901183504 79 253 1.0 6.0 0.00 0.00 0.00 61 1020.4
20260901183004 79 256 2.0 6.0 0.00 0.00 0.00 61 1020.2
20260901182525 79 248 2.0 4.0 0.00 0.00 0.00 60 1020.1
20260901182025 80 262 2.0 4.0 0.00 0.00 0.00 60 1020.3
20260901181504 80 273 2.0 4.0 0.00 0.00 0.00 58 1020.1
20260901181004 81 249 2.0 4.0 0.00 0.00 0.00 58 1020.1
20260901180504 81 237 2.0 3.0 0.00 0.00 0.00 57 1020.1
20260901180025 82 246 1.0 3.0 0.00 0.00 0.00 56 1020.0
20260901175504 82 251 2.0 3.0 0.00 0.00 0.00 56 1020.3
20260901175004 83 258 2.0 6.0 0.00 0.00 0.00 55 1020.1
20260901174504 83 271 3.0 6.0 0.00 0.00 0.00 54 1020.1
20260901174025 84 272 3.0 6.0 0.00 0.00 0.00 53 1020.0
20260901173504 84 271 3.0 7.0 0.00 0.00 0.00 52 1019.9
20260901173004 84 271 3.0 8.0 0.00 0.00 0.00 53 1019.9
20260901172525 84 264 3.0 8.0 0.00 0.00 0.00 52 1019.9
20260901172004 85 266 3.0 7.0 0.00 0.00 0.00 52 1019.9
20260901171504 85 282 4.0 7.0 0.00 0.00 0.00 51 1020.1
20260901171004 85 283 4.0 7.0 0.00 0.00 0.00 51 1020.0
20260901170504 85 277 4.0 7.0 0.00 0.00 0.00 51 1020.0
20260901170004 85 277 4.0 9.0 0.00 0.00 0.00 50 1020.0
20260901165504 85 292 5.0 9.0 0.00 0.00 0.00 50 1020.1
20260901165004 85 296 4.0 9.0 0.00 0.00 0.00 50 1020.0
20260901164504 86 263 3.0 7.0 0.00 0.00 0.00 49 1020.1
20260901164004 87 268 3.0 9.0 0.00 0.00 0.00 48 1020.1
20260901163525 86 288 3.0 9.0 0.00 0.00 0.00 48 1019.9
20260901163004 88 282 3.0 7.0 0.00 0.00 0.00 48 1019.9
20260901162504 88 284 3.0 9.0 0.00 0.00 0.00 47 1019.9
20260901162004 87 287 2.0 9.0 0.00 0.00 0.00 46 1019.9
20260901161504 88 264 2.0 10.0 0.00 0.00 0.00 47 1019.9
20260901161004 89 290 2.0 10.0 0.00 0.00 0.00 46 1020.0
20260901160504 88 59 2.0 8.0 0.00 0.00 0.00 47 1020.1
20260901160004 88 72 2.0 9.0 0.00 0.00 0.00 47 1020.1
20260901155525 86 54 3.0 9.0 0.00 0.00 0.00 48 1020.0
20260901155004 87 51 3.0 9.0 0.00 0.00 0.00 48 1020.1
20260901154504 87 33 3.0 9.0 0.00 0.00 0.00 48 1020.1
20260901154004 90 259 2.0 6.0 0.00 0.00 0.00 45 1020.2
20260901153504 91 233 2.0 6.0 0.00 0.00 0.00 44 1020.0
20260901153004 90 257 2.0 6.0 0.00 0.00 0.00 45 1020.0
20260901152504 90 62 2.0 7.0 0.00 0.00 0.00 43 1020.0
20260901152004 88 293 2.0 8.0 0.00 0.00 0.00 47 1019.8
20260901151504 90 278 2.0 8.0 0.00 0.00 0.00 45 1020.1
20260901151025 90 277 2.0 6.0 0.00 0.00 0.00 44 1020.2
20260901150504 90 222 2.0 7.0 0.00 0.00 0.00 44 1020.0
20260901150004 89 246 2.0 8.0 0.00 0.00 0.00 44 1020.0
20260901145504 89 236 2.0 8.0 0.00 0.00 0.00 44 1020.1
20260901145004 89 252 2.0 9.0 0.00 0.00 0.00 45 1020.1
20260901144504 89 279 2.0 9.0 0.00 0.00 0.00 45 1020.2
20260901144004 89 280 3.0 8.0 0.00 0.00 0.00 45 1020.2
20260901143504 88 273 2.0 7.0 0.00 0.00 0.00 47 1020.3
20260901143004 88 281 2.0 7.0 0.00 0.00 0.00 46 1020.3
20260901142504 88 280 3.0 7.0 0.00 0.00 0.00 46 1020.4
20260901142004 89 249 2.0 7.0 0.00 0.00 0.00 46 1020.4
20260901141504 88 278 3.0 9.0 0.00 0.00 0.00 48 1020.3
20260901141004 88 287 3.0 9.0 0.00 0.00 0.00 48 1020.5
20260901140504 89 267 2.0 13.0 0.00 0.00 0.00 48 1020.3
20260901140025 88 282 3.0 13.0 0.00 0.00 0.00 48 1020.3
20260901135504 88 279 3.0 9.0 0.00 0.00 0.00 48 1020.6
20260901135004 89 272 3.0 9.0 0.00 0.00 0.00 48 1020.6
20260901134504 88 266 2.0 9.0 0.00 0.00 0.00 48 1020.7
20260901134004 88 222 2.0 9.0 0.00 0.00 0.00 50 1020.8
20260901133504 88 302 3.0 11.0 0.00 0.00 0.00 50 1020.9
20260901133004 87 291 3.0 11.0 0.00 0.00 0.00 50 1021.1
20260901132504 88 251 2.0 7.0 0.00 0.00 0.00 50 1021.1
20260901132004 86 289 3.0 8.0 0.00 0.00 0.00 51 1021.2
20260901131504 86 296 4.0 9.0 0.00 0.00 0.00 52 1021.2
20260901131004 88 297 4.0 10.0 0.00 0.00 0.00 50 1021.3
20260901130525 88 301 3.0 10.0 0.00 0.00 0.00 50 1021.3
20260901130004 86 54 2.0 6.0 0.00 0.00 0.00 53 1021.4
20260901125504 85 50 2.0 8.0 0.00 0.00 0.00 51 1021.2
20260901125004 85 48 3.0 8.0 0.00 0.00 0.00 52 1021.4
20260901124505 85 50 3.0 9.0 0.00 0.00 0.00 53 1021.4
20260901124004 84 51 2.0 9.0 0.00 0.00 0.00 53 1021.5
20260901123504 87 43 1.0 6.0 0.00 0.00 0.00 50 1021.6
20260901123004 87 233 1.0 6.0 0.00 0.00 0.00 48 1021.7
20260901122504 84 66 1.0 6.0 0.00 0.00 0.00 53 1021.7
20260901122004 84 64 1.0 7.0 0.00 0.00 0.00 53 1021.9
20260901121504 85 44 2.0 7.0 0.00 0.00 0.00 52 1021.6
20260901121004 86 60 2.0 8.0 0.00 0.00 0.00 52 1021.5
20260901120504 86 53 2.0 9.0 0.00 0.00 0.00 49 1021.6
20260901120004 87 35 2.0 9.0 0.00 0.00 0.00 51 1021.7
20260901115504 86 47 2.0 7.0 0.00 0.00 0.00 49 1021.8
20260901115004 85 207 1.0 6.0 0.00 0.00 0.00 51 1021.9
20260901114504 86 247 2.0 7.0 0.00 0.00 0.00 50 1021.9
20260901114025 87 274 2.0 7.0 0.00 0.00 0.00 49 1021.8
20260901113504 86 297 1.0 7.0 0.00 0.00 0.00 49 1021.8
20260901113004 85 59 1.0 6.0 0.00 0.00 0.00 49 1021.7
20260901112504 85 72 1.0 6.0 0.00 0.00 0.00 51 1021.9
20260901112025 84 41 2.0 7.0 0.00 0.00 0.00 52 1022.0
20260901111504 82 249 2.0 7.0 0.00 0.00 0.00 55 1022.1
20260901111025 83 242 2.0 7.0 0.00 0.00 0.00 57 1022.1
20260901110504 83 253 1.0 4.0 0.00 0.00 0.00 57 1022.1
20260901110004 82 256 1.0 4.0 0.00 0.00 0.00 57 1022.1
20260901105504 82 13 1.0 6.0 0.00 0.00 0.00 59 1022.1
20260901105004 82 11 1.0 6.0 0.00 0.00 0.00 56 1022.1
20260901104504 81 238 1.0 4.0 0.00 0.00 0.00 56 1022.1
20260901104004 81 261 2.0 7.0 0.00 0.00 0.00 59 1022.2
20260901103504 80 282 2.0 7.0 0.00 0.00 0.00 58 1022.3
20260901103025 81 49 1.0 6.0 0.00 0.00 0.00 58 1022.3
20260901102504 81 83 1.0 6.0 0.00 0.00 0.00 60 1022.3
20260901102025 80 70 1.0 3.0 0.00 0.00 0.00 59 1022.4
20260901101525 80 29 1.0 3.0 0.00 0.00 0.00 57 1022.2
20260901101003 80 46 1.0 6.0 0.00 0.00 0.00 60 1022.4
20260901100503 79 283 2.0 6.0 0.00 0.00 0.00 60 1022.4
20260901100004 79 268 2.0 4.0 0.00 0.00 0.00 62 1022.4
20260901095504 79 261 1.0 3.0 0.00 0.00 0.00 60 1022.4
20260901095003 79 253 1.0 3.0 0.00 0.00 0.00 57 1022.7
20260901094504 79 260 1.0 4.0 0.00 0.00 0.00 60 1022.5
20260901094025 78 263 1.0 4.0 0.00 0.00 0.00 62 1022.7
20260901093504 77 276 1.0 4.0 0.00 0.00 0.00 62 1022.5
20260901093004 77 264 1.0 4.0 0.00 0.00 0.00 62 1022.3
20260901092503 77 250 1.0 3.0 0.00 0.00 0.00 62 1022.5
20260901092004 77 251 1.0 3.0 0.00 0.00 0.00 63 1022.7
20260901091504 76 236 0.0 2.0 0.00 0.00 0.00 62 1022.4
20260901091003 76 227 0.0 2.0 0.00 0.00 0.00 63 1022.7
20260901090504 76 215 1.0 2.0 0.00 0.00 0.00 62 1022.5
20260901090004 75 202 0.0 2.0 0.00 0.00 0.00 64 1022.4
20260901085504 76 247 1.0 2.0 0.00 0.00 0.00 62 1022.5
20260901085004 74 245 1.0 3.0 0.00 0.00 0.00 65 1022.7
20260901084504 75 254 1.0 4.0 0.00 0.00 0.00 64 1022.8
20260901084004 74 257 1.0 4.0 0.00 0.00 0.00 65 1022.7
20260901083504 74 247 0.0 3.0 0.00 0.00 0.00 65 1023.0
20260901083004 74 254 1.0 3.0 0.00 0.00 0.00 66 1022.8
20260901082504 72 260 1.0 3.0 0.00 0.00 0.00 69 1022.9
20260901082004 72 262 1.0 3.0 0.00 0.00 0.00 68 1022.9
20260901081504 71 253 1.0 3.0 0.00 0.00 0.00 70 1022.8
20260901081004 72 249 1.0 3.0 0.00 0.00 0.00 70 1023.0
20260901080504 71 245 1.0 3.0 0.00 0.00 0.00 72 1022.9
20260901080025 71 240 1.0 2.0 0.00 0.00 0.00 73 1022.7
20260901075504 71 242 1.0 2.0 0.00 0.00 0.00 75 1022.7
20260901075004 70 244 1.0 2.0 0.00 0.00 0.00 76 1023.0
20260901074504 69 247 1.0 2.0 0.00 0.00 0.00 78 1023.1
20260901074004 69 239 1.0 2.0 0.00 0.00 0.00 78 1022.9
20260901073504 69 234 1.0 2.0 0.00 0.00 0.00 79 1023.1
20260901073004 68 243 1.0 3.0 0.00 0.00 0.00 80 1023.0
20260901072504 67 248 1.0 3.0 0.00 0.00 0.00 81 1022.9
20260901072004 67 241 1.0 3.0 0.00 0.00 0.00 81 1023.1
20260901071504 67 236 1.0 2.0 0.00 0.00 0.00 81 1022.8
20260901071004 66 237 1.0 2.0 0.00 0.00 0.00 81 1023.0
20260901070504 66 234 0.0 2.0 0.00 0.00 0.00 82 1023.1
20260901070004 66 235 0.0 1.0 0.00 0.00 0.00 82 1023.0
20260901065504 65 238 0.0 1.0 0.00 0.00 0.00 84 1023.1
20260901065003 65 237 0.0 1.0 0.00 0.00 0.00 85 1023.0
20260901064504 65 236 0.0 1.0 0.00 0.00 0.00 86 1023.1
20260901064004 64 235 0.0 1.0 0.00 0.00 0.00 87 1022.9
20260901063524 65 231 0.0 1.0 0.00 0.00 0.00 87 1023.0
20260901063003 65 231 0.0 1.0 0.00 0.00 0.00 87 1023.2
20260901062503 65 230 0.0 1.0 0.00 0.00 0.00 86 1023.1
20260901062004 65 199 0.0 1.0 0.00 0.00 0.00 86 1023.0
20260901061503 65 199 0.0 1.0 0.00 0.00 0.00 86 1022.9
20260901061004 65 0 0.0 0.0 0.00 0.00 0.00 86 1023.0
20260901060503 64 0 0.0 0.0 0.00 0.00 0.00 86 1022.9
20260901060003 64 0 0.0 0.0 0.00 0.00 0.00 86 1023.0
20260901055525 64 230 0.0 1.0 0.00 0.00 0.00 87 1023.0
20260901055004 64 233 0.0 1.0 0.00 0.00 0.00 86 1023.0
20260901054504 64 224 1.0 2.0 0.00 0.00 0.00 86 1022.8
20260901054004 64 221 1.0 2.0 0.00 0.00 0.00 86 1022.8
20260901053503 64 224 0.0 2.0 0.00 0.00 0.00 84 1022.7
20260901053004 64 225 0.0 1.0 0.00 0.00 0.00 85 1022.7
20260901052524 64 220 0.0 1.0 0.00 0.00 0.00 85 1022.7
20260901052004 64 219 0.0 1.0 0.00 0.00 0.00 85 1022.5
20260901051504 63 223 0.0 1.0 0.00 0.00 0.00 86 1022.7
20260901051004 63 223 0.0 1.0 0.00 0.00 0.00 86 1022.7
20260901050503 63 0 0.0 0.0 0.00 0.00 0.00 87 1022.7
20260901050003 63 0 0.0 0.0 0.00 0.00 0.00 87 1022.8
20260901045503 63 0 0.0 0.0 0.00 0.00 0.00 86 1022.5
20260901045004 64 187 0.0 2.0 0.00 0.00 0.00 86 1022.5
20260901044524 64 198 0.0 2.0 0.00 0.00 0.00 86 1022.8
20260901044004 64 220 0.0 1.0 0.00 0.00 0.00 87 1022.5
20260901043503 64 222 0.0 1.0 0.00 0.00 0.00 87 1022.5
20260901043003 64 227 0.0 1.0 0.00 0.00 0.00 86 1022.5
20260901042503 64 0 0.0 0.0 0.00 0.00 0.00 86 1022.5
20260901042003 64 0 0.0 0.0 0.00 0.00 0.00 85 1022.4
20260901041504 65 216 0.0 1.0 0.00 0.00 0.00 85 1022.7
20260901041003 65 216 0.0 1.0 0.00 0.00 0.00 84 1022.7
20260901040504 65 204 0.0 1.0 0.00 0.00 0.00 84 1022.9
20260901040003 65 194 0.0 1.0 0.00 0.00 0.00 84 1022.9
20260901035525 65 203 0.0 2.0 0.00 0.00 0.00 85 1022.9
20260901035003 65 218 0.0 2.0 0.00 0.00 0.00 85 1022.8
20260901034503 65 214 0.0 1.0 0.00 0.00 0.00 86 1022.9
20260901034004 65 202 0.0 1.0 0.00 0.00 0.00 85 1022.8
20260901033503 64 221 0.0 1.0 0.00 0.00 0.00 85 1022.7
20260901033003 65 231 0.0 2.0 0.00 0.00 0.00 84 1022.9
20260901032504 66 227 0.0 2.0 0.00 0.00 0.00 85 1022.9
20260901032004 66 221 0.0 1.0 0.00 0.00 0.00 85 1022.7
20260901031524 66 221 0.0 1.0 0.00 0.00 0.00 84 1022.8
20260901031003 65 224 0.0 1.0 0.00 0.00 0.00 83 1023.1
20260901030503 65 222 0.0 1.0 0.00 0.00 0.00 84 1022.9
20260901030004 65 221 0.0 1.0 0.00 0.00 0.00 85 1022.8
20260901025504 65 232 0.0 1.0 0.00 0.00 0.00 85 1022.5
20260901025004 66 220 0.0 1.0 0.00 0.00 0.00 83 1022.9
20260901024504 66 213 0.0 1.0 0.00 0.00 0.00 82 1022.9
20260901024004 66 214 0.0 2.0 0.00 0.00 0.00 82 1022.9
20260901023525 66 216 0.0 2.0 0.00 0.00 0.00 82 1023.1
20260901023025 66 217 0.0 2.0 0.00 0.00 0.00 83 1023.1
20260901022504 66 205 0.0 1.0 0.00 0.00 0.00 82 1023.1
20260901022003 65 229 0.0 1.0 0.00 0.00 0.00 81 1023.0
20260901021504 66 232 1.0 2.0 0.00 0.00 0.00 81 1023.0
20260901021004 66 235 1.0 2.0 0.00 0.00 0.00 81 1022.9
20260901020504 66 235 1.0 2.0 0.00 0.00 0.00 82 1022.8
20260901020004 66 234 0.0 1.0 0.00 0.00 0.00 82 1023.0
20260901015503 67 227 0.0 1.0 0.00 0.00 0.00 82 1022.8
20260901015025 67 227 0.0 1.0 0.00 0.00 0.00 80 1022.9
20260901014504 67 226 0.0 1.0 0.00 0.00 0.00 80 1022.8
20260901014004 67 177 0.0 1.0 0.00 0.00 0.00 81 1022.9
20260901013504 67 205 0.0 2.0 0.00 0.00 0.00 80 1023.0
20260901013004 67 215 0.0 2.0 0.00 0.00 0.00 81 1022.9
20260901012504 67 219 0.0 1.0 0.00 0.00 0.00 80 1022.8
20260901012004 67 219 0.0 1.0 0.00 0.00 0.00 80 1023.0
20260901011504 67 223 0.0 1.0 0.00 0.00 0.00 81 1023.0
20260901011004 67 228 0.0 1.0 0.00 0.00 0.00 81 1023.1
20260901010525 68 228 0.0 1.0 0.00 0.00 0.00 80 1023.1
20260901010004 69 218 1.0 2.0 0.00 0.00 0.00 80 1023.1
20260901005503 69 219 1.0 2.0 0.00 0.00 0.00 78 1023.0
20260901005004 69 220 1.0 1.0 0.00 0.00 0.00 78 1022.9
20260901004503 68 221 0.0 1.0 0.00 0.00 0.00 78 1022.9
20260901004004 68 221 0.0 1.0 0.00 0.00 0.00 77 1023.0
20260901003504 68 234 0.0 1.0 0.00 0.00 0.00 78 1023.0
20260901003003 68 223 0.0 1.0 0.00 0.00 0.00 78 1023.0
20260901002525 68 223 0.0 1.0 0.00 0.00 0.00 77 1023.1
20260901002004 68 231 0.0 1.0 0.00 0.00 0.00 77 1022.9
20260901001525 69 235 0.0 1.0 0.00 0.00 0.00 77 1023.0
20260901001003 69 232 0.0 1.0 0.00 0.00 0.00 75 1022.9
20260901000503 69 227 0.0 1.0 0.00 0.00 0.00 75 1022.9
20260901000004 69 222 0.0 1.0 0.00 0.00 0.00 74 1022.9
20260831235504 69 223 0.0 1.0 0.00 0.00 0.00 73 1022.9
20260831235024 69 229 0.0 2.0 0.00 0.00 0.00 72 1023.0
20260831234503 70 227 0.0 2.0 0.00 0.00 0.00 71 1022.9
20260831234003 71 218 1.0 2.0 0.00 0.00 0.00 69 1022.9
20260831233504 70 221 1.0 2.0 0.00 0.00 0.00 69 1023.0
20260831233003 70 226 0.0 1.0 0.00 0.00 0.00 70 1023.1
20260831232504 70 220 0.0 1.0 0.00 0.00 0.00 70 1022.9
20260831232004 70 213 0.0 1.0 0.00 0.00 0.00 70 1022.8
20260831231503 71 212 1.0 2.0 0.00 0.00 0.00 69 1022.7
20260831231004 71 213 1.0 2.0 0.00 0.00 0.00 69 1022.7
20260831230504 70 221 1.0 2.0 0.00 0.00 0.00 70 1022.7
20260831230003 70 228 0.0 1.0 0.00 0.00 0.00 71 1022.7
20260831225524 70 228 0.0 1.0 0.00 0.00 0.00 70 1022.8
20260831225024 70 224 0.0 1.0 0.00 0.00 0.00 70 1022.9
20260831224503 70 224 0.0 1.0 0.00 0.00 0.00 70 1022.8
20260831224003 70 223 0.0 1.0 0.00 0.00 0.00 70 1022.5
20260831223503 71 0 0.0 0.0 0.00 0.00 0.00 69 1022.5
20260831223003 71 223 0.0 1.0 0.00 0.00 0.00 69 1022.5
20260831222503 71 222 1.0 2.0 0.00 0.00 0.00 69 1022.5
20260831222003 72 222 0.0 2.0 0.00 0.00 0.00 68 1022.4
20260831221503 72 221 0.0 2.0 0.00 0.00 0.00 67 1022.2
20260831221003 72 204 0.0 1.0 0.00 0.00 0.00 67 1022.3
20260831220503 72 221 0.0 1.0 0.00 0.00 0.00 67 1022.4
20260831220003 73 219 0.0 2.0 0.00 0.00 0.00 66 1022.2
20260831215503 73 218 0.0 2.0 0.00 0.00 0.00 66 1022.2
20260831215024 73 216 0.0 1.0 0.00 0.00 0.00 66 1022.3
20260831214503 73 237 0.0 1.0 0.00 0.00 0.00 67 1022.1
20260831214003 73 229 0.0 1.0 0.00 0.00 0.00 65 1022.1
20260831213524 74 228 0.0 1.0 0.00 0.00 0.00 65 1022.2
20260831213024 74 230 1.0 2.0 0.00 0.00 0.00 63 1022.0
20260831212503 74 227 1.0 2.0 0.00 0.00 0.00 64 1022.0
20260831212003 74 225 0.0 2.0 0.00 0.00 0.00 63 1022.0
20260831211503 74 225 0.0 2.0 0.00 0.00 0.00 62 1021.9
20260831211024 74 221 0.0 2.0 0.00 0.00 0.00 63 1021.8
20260831210503 74 219 0.0 2.0 0.00 0.00 0.00 63 1021.9
20260831210024 74 221 0.0 1.0 0.00 0.00 0.00 64 1021.9
20260831205503 74 224 0.0 1.0 0.00 0.00 0.00 64 1021.7
20260831205003 75 224 0.0 1.0 0.00 0.00 0.00 63 1021.8
20260831204503 75 225 0.0 2.0 0.00 0.00 0.00 62 1021.7
20260831204003 76 232 1.0 2.0 0.00 0.00 0.00 61 1021.7
20260831203503 76 234 1.0 2.0 0.00 0.00 0.00 61 1021.7
20260831203003 76 232 2.0 3.0 0.00 0.00 0.00 60 1021.5
20260831202503 76 250 2.0 4.0 0.00 0.00 0.00 59 1021.6
20260831202003 76 254 2.0 4.0 0.00 0.00 0.00 58 1021.5
20260831201503 76 238 1.0 3.0 0.00 0.00 0.00 56 1021.4